Weather History for Natchez, MS

Change the Weather History Date:

Monday, February 18, 2013

  Actual Average Record
Temperature  
Mean Temperature 56 °F -  
Max Temperature 68 °F 62 °F 83 °F (1939)
Min Temperature 44 °F 42 °F 18 °F (1936)
Degree Days  
Heating Degree Days 9    
Growing Degree Days 6 (Base 50)    
Moisture  
Dew Point 46 °F    
Average Humidity 71    
Maximum Humidity 94    
Minimum Humidity 52    
Precipitation  
Precipitation 0.34 in - - ()
Sea Level Pressure  
Sea Level Pressure 30.05 in    
Wind  
Wind Speed 13 mph (SSE)    
Max Wind Speed 29 mph    
Max Gust Speed 37 mph    
Visibility 10 miles    
Events      
Averages and records for this station are not official NWS values.
T = Trace of Precipitation, MM = Missing Value Source: NWS Daily Summary

Daily Weather History Graph

Daily Weather History Graph

Search for Another Location

Airport:

Trip Planner

Search our weather history database for the weather conditions in past years. The results will help you decide how hot, cold, wet, or windy it might be!

Date:

Astronomy

Feb. 18, 2013 Rise Set
Actual Time 6:43 AM CST 5:54 PM CST
Civil Twilight 6:19 AM CST 6:19 PM CST
Nautical Twilight 5:50 AM CST 6:48 PM CST
Astronomical Twilight 5:22 AM CST 7:16 PM CST
Moon 11:51 AM CST (2/18) 1:13 AM CST (2/18)
Length of Visible Light 12h 00m
Length of Day
11h 11m
First Quarter, 58% of the Moon is Illuminated
Feb 18
First Quarter
Feb 25
Full
Mar 4
Last Quarter
Mar 11
New
Mar 19
First Quarter

Hourly Weather History & Observations

Time (CST) Temp. Windchill Dew Point Humidity Pressure Visibility Wind Dir Wind Speed Gust Speed Precip Events Conditions
12:15 AM 48.2 °F - 35.6 °F 62% 30.18 in 10.0 mi South 10.4 mph - N/A   Clear
12:35 AM 46.4 °F 41.9 °F 35.6 °F 66% 30.18 in 10.0 mi South 9.2 mph - N/A   Clear
12:55 AM 46.4 °F 41.1 °F 35.6 °F 66% 30.17 in 10.0 mi South 11.5 mph 16.1 mph N/A   Clear
1:15 AM 48.2 °F - 35.6 °F 62% 30.17 in 10.0 mi South 15.0 mph - N/A   Clear
1:35 AM 48.2 °F - 35.6 °F 62% 30.16 in 10.0 mi South 13.8 mph - N/A   Clear
1:55 AM 46.4 °F 40.7 °F 35.6 °F 66% 30.16 in 10.0 mi SSE 12.7 mph - N/A   Clear
2:15 AM 46.4 °F 41.5 °F 35.6 °F 66% 30.15 in 10.0 mi SSE 10.4 mph 17.3 mph N/A   Clear
2:35 AM 46.4 °F 41.5 °F 35.6 °F 66% 30.15 in 10.0 mi SSE 10.4 mph - N/A   Clear
2:55 AM 46.4 °F 41.1 °F 35.6 °F 66% 30.15 in 10.0 mi SSE 11.5 mph 18.4 mph N/A   Clear
3:15 AM 46.4 °F 41.5 °F 35.6 °F 66% 30.14 in 10.0 mi SSE 10.4 mph 18.4 mph N/A   Clear
3:55 AM 46.4 °F 40.7 °F 35.6 °F 66% 30.13 in 10.0 mi SSE 12.7 mph - N/A   Clear
4:15 AM 44.6 °F 38.8 °F 35.6 °F 71% 30.12 in 10.0 mi SSE 11.5 mph - N/A   Clear
4:35 AM 44.6 °F 39.7 °F 35.6 °F 71% 30.13 in 10.0 mi SSE 9.2 mph - N/A   Clear
4:55 AM 44.6 °F 40.2 °F 35.6 °F 71% 30.12 in 10.0 mi SSE 8.1 mph - N/A   Clear
5:15 AM 44.6 °F 40.2 °F 35.6 °F 71% 30.12 in 10.0 mi South 8.1 mph - N/A   Clear
5:35 AM 46.4 °F 41.5 °F 37.4 °F 71% 30.12 in 10.0 mi South 10.4 mph - N/A   Clear
5:55 AM 46.4 °F 41.5 °F 37.4 °F 71% 30.12 in 10.0 mi SSE 10.4 mph - N/A   Clear
6:15 AM 46.4 °F 41.5 °F 37.4 °F 71% 30.12 in 10.0 mi South 10.4 mph - N/A   Clear
6:35 AM 46.4 °F 41.5 °F 39.2 °F 76% 30.12 in 10.0 mi SSE 10.4 mph - N/A   Partly Cloudy
6:55 AM 48.2 °F - 41.0 °F 76% 30.12 in 10.0 mi SSE 12.7 mph - N/A   Mostly Cloudy
7:15 AM 50.0 °F - 41.0 °F 71% 30.12 in 10.0 mi SSE 12.7 mph 17.3 mph N/A   Overcast
7:35 AM 50.0 °F - 42.8 °F 76% 30.12 in 10.0 mi SSE 16.1 mph - N/A   Overcast
7:55 AM 51.8 °F - 42.8 °F 71% 30.12 in 10.0 mi SSE 13.8 mph 19.6 mph N/A   Overcast
8:16 AM 51.8 °F - 42.8 °F 71% 30.13 in 10.0 mi SSE 15.0 mph - N/A   Mostly Cloudy
8:35 AM 53.6 °F - 44.6 °F 72% 30.13 in 9.0 mi SSE 12.7 mph - N/A   Mostly Cloudy
8:55 AM 53.6 °F - 44.6 °F 72% 30.13 in 10.0 mi SSE 13.8 mph 21.9 mph N/A   Scattered Clouds
9:15 AM 55.4 °F - 44.6 °F 67% 30.13 in 10.0 mi SSE 16.1 mph 23.0 mph N/A   Scattered Clouds
9:35 AM 55.4 °F - 44.6 °F 67% 30.13 in 10.0 mi SSE 12.7 mph - N/A   Mostly Cloudy
9:55 AM 55.4 °F - 44.6 °F 67% 30.12 in 10.0 mi SSE 12.7 mph - N/A   Scattered Clouds
10:15 AM 57.2 °F - 46.4 °F 67% 30.12 in 10.0 mi South 12.7 mph 23.0 mph N/A   Partly Cloudy
10:35 AM 59.0 °F - 46.4 °F 63% 30.11 in 10.0 mi SSE 15.0 mph 20.7 mph N/A   Partly Cloudy
10:55 AM 60.8 °F - 46.4 °F 59% 30.11 in 10.0 mi South 16.1 mph 21.9 mph N/A   Clear
11:15 AM 60.8 °F - 46.4 °F 59% 30.10 in 10.0 mi SSE 15.0 mph 21.9 mph N/A   Clear
11:35 AM 60.8 °F - 48.2 °F 63% 30.08 in 10.0 mi SSE 16.1 mph 21.9 mph N/A   Scattered Clouds
11:55 AM 62.6 °F - 48.2 °F 59% 30.06 in 10.0 mi South 17.3 mph 24.2 mph N/A   Partly Cloudy
12:15 PM 64.4 °F - 48.2 °F 56% 30.05 in 10.0 mi South 18.4 mph 29.9 mph N/A   Partly Cloudy
12:35 PM 64.4 °F - 48.2 °F 56% 30.03 in 10.0 mi South 20.7 mph 26.5 mph N/A   Clear
12:55 PM 64.4 °F - 50.0 °F 59% 30.03 in 10.0 mi South 19.6 mph 28.8 mph N/A   Clear
1:15 PM 66.2 °F - 48.2 °F 52% 30.01 in 10.0 mi SSE 27.6 mph 36.8 mph N/A   Partly Cloudy
1:35 PM 66.2 °F - 50.0 °F 56% 30.00 in 10.0 mi SSE 26.5 mph 34.5 mph N/A   Scattered Clouds
1:55 PM 68.0 °F - 50.0 °F 52% 29.99 in 10.0 mi South 25.3 mph 36.8 mph N/A   Partly Cloudy
2:15 PM 66.2 °F - 48.2 °F 52% 29.99 in 10.0 mi South 21.9 mph 34.5 mph N/A   Mostly Cloudy
2:36 PM 66.2 °F - 50.0 °F 56% 29.98 in 10.0 mi SSE 24.2 mph 34.5 mph N/A   Mostly Cloudy
2:55 PM 64.4 °F - 50.0 °F 59% 29.98 in 10.0 mi South 28.8 mph 36.8 mph N/A   Scattered Clouds
3:15 PM 64.4 °F - 51.8 °F 64% 29.97 in 10.0 mi South 24.2 mph 33.4 mph N/A   Mostly Cloudy
3:35 PM 64.4 °F - 50.0 °F 59% 29.97 in 10.0 mi SSE 20.7 mph 34.5 mph N/A   Mostly Cloudy
3:55 PM 62.6 °F - 48.2 °F 59% 29.96 in 10.0 mi SSE 18.4 mph 33.4 mph N/A   Overcast
4:15 PM 62.6 °F - 50.0 °F 63% 29.96 in 10.0 mi SSE 18.4 mph 28.8 mph N/A   Overcast
4:35 PM 60.8 °F - 50.0 °F 68% 29.96 in 10.0 mi SSE 15.0 mph 27.6 mph N/A   Overcast
4:56 PM 60.8 °F - 50.0 °F 68% 29.96 in 10.0 mi SSE 16.1 mph - N/A   Overcast
5:15 PM 60.8 °F - 50.0 °F 68% 29.96 in 10.0 mi SSE 17.3 mph 23.0 mph N/A   Overcast
5:35 PM 57.2 °F - 51.8 °F 82% 29.96 in 8.0 mi SSE 17.3 mph 21.9 mph N/A   Overcast
5:55 PM 57.2 °F - 51.8 °F 82% 29.96 in 10.0 mi SE 13.8 mph 19.6 mph N/A   Overcast
6:15 PM 57.2 °F - 53.6 °F 88% 29.95 in 10.0 mi SE 12.7 mph - N/A   Mostly Cloudy
6:35 PM 57.2 °F - 53.6 °F 88% 29.94 in 10.0 mi SE 15.0 mph 25.3 mph N/A   Mostly Cloudy
6:55 PM 55.4 °F - 53.6 °F 94% 29.94 in 10.0 mi SE 16.1 mph 23.0 mph 0.13 in   Overcast
7:15 PM 57.2 °F - 51.8 °F 82% 29.94 in 10.0 mi SE 16.1 mph 28.8 mph 0.01 in   Overcast
7:35 PM 55.4 °F - 51.8 °F 88% 29.93 in 10.0 mi SSE 18.4 mph 24.2 mph 0.02 in   Overcast
7:55 PM 55.4 °F - 51.8 °F 88% 29.94 in 9.0 mi SSE 19.6 mph 26.5 mph 0.03 in   Mostly Cloudy
8:15 PM 55.4 °F - 53.6 °F 94% 29.93 in 10.0 mi SSE 18.4 mph 24.2 mph 0.03 in   Mostly Cloudy
8:35 PM 57.2 °F - 53.6 °F 88% 29.92 in 10.0 mi SSE 12.7 mph 20.7 mph 0.04 in   Overcast
9:15 PM 57.2 °F - 53.6 °F 88% 29.93 in 10.0 mi SSW 6.9 mph - N/A   Overcast
9:35 PM 57.2 °F - 55.4 °F 94% 29.92 in 10.0 mi South 13.8 mph - N/A   Mostly Cloudy
9:55 PM 57.2 °F - 55.4 °F 94% 29.94 in 10.0 mi SSW 8.1 mph - N/A   Mostly Cloudy
10:15 PM 57.2 °F - 55.4 °F 94% 29.95 in 10.0 mi NW 8.1 mph - N/A   Overcast
10:35 PM 57.2 °F - 55.4 °F 94% 29.93 in 9.0 mi SE 6.9 mph - N/A   Mostly Cloudy
10:55 PM 57.2 °F - 55.4 °F 94% 29.93 in 10.0 mi South 5.8 mph - 0.12 in   Partly Cloudy
11:35 PM 59.0 °F - 55.4 °F 88% 29.93 in 10.0 mi South 6.9 mph - N/A   Overcast
11:55 PM 59.0 °F - 57.2 °F 94% 29.96 in 9.0 mi WNW 9.2 mph 20.7 mph 0.02 in   Overcast